This is the latest recevied weather packets stored in our database for station/object SP1BMW-13. If no packets are shown the sender has not sent any weather packets the latest 10 day(s).
| Time | Temp. | Humidity | Pressure | Rain* | Wind** | Luminosity | Snow |
|---|---|---|---|---|---|---|---|
| 1787928558 | 25° C | 55% | 1008.9 hPa | 0 mm | 2.24 m/s, 71° | 185 W/m² | - |
| 1787928498 | 25° C | 56% | 1009 hPa | 0 mm | 1.34 m/s, 23° | 191 W/m² | - |
| 1787928438 | 25° C | 55% | 1009.1 hPa | 0 mm | 1.34 m/s, 36° | 200 W/m² | - |
| 1787928378 | 25° C | 56% | 1009.2 hPa | 0 mm | 0.89 m/s, 19° | 215 W/m² | - |
| 1787928318 | 25° C | 55% | 1009.1 hPa | 0 mm | 2.24 m/s, 316° | 230 W/m² | - |
| 1787928258 | 25° C | 55% | 1009.1 hPa | 0 mm | 1.34 m/s, 20° | 234 W/m² | - |
| 1787928198 | 25° C | 55% | 1009.3 hPa | 0 mm | 1.79 m/s, 17° | 235 W/m² | - |
| 1787928138 | 25° C | 55% | 1009.3 hPa | 0 mm | 0.45 m/s, 87° | 238 W/m² | - |
| 1787928078 | 25° C | 55% | 1009.2 hPa | 0 mm | 0.89 m/s, 26° | 238 W/m² | - |
| 1787928018 | 24.44° C | 56% | 1009.2 hPa | 0 mm | 0.89 m/s, 109° | 261 W/m² | - |
| 1787927958 | 24.44° C | 55% | 1009.1 hPa | 0 mm | 0.89 m/s, 20° | 320 W/m² | - |
| 1787927899 | 24.44° C | 55% | 1009 hPa | 0 mm | 1.79 m/s, 21° | 319 W/m² | - |
| 1787927838 | 24.44° C | 55% | 1009.1 hPa | 0 mm | 0.89 m/s, 78° | 305 W/m² | - |
| 1787927778 | 24.44° C | 55% | 1009.1 hPa | 0 mm | 4.02 m/s, 68° | 301 W/m² | - |
| 1787927718 | 24.44° C | 55% | 1009.2 hPa | 0 mm | 1.79 m/s, 106° | 275 W/m² | - |
| 1787927658 | 24.44° C | 56% | 1008.8 hPa | 0 mm | 1.79 m/s, 12° | 254 W/m² | - |
| 1787927598 | 24.44° C | 56% | 1009.1 hPa | 0 mm | 1.34 m/s, 42° | 231 W/m² | - |
| 1787927539 | 24.44° C | 56% | 1009.1 hPa | 0 mm | 0.89 m/s, 31° | 223 W/m² | - |
| 1787927478 | 24.44° C | 56% | 1008.8 hPa | 0 mm | 1.34 m/s, 11° | 217 W/m² | - |
| 1787927418 | 24.44° C | 56% | 1009.1 hPa | 0 mm | 1.34 m/s, 268° | 209 W/m² | - |
| 1787927358 | 24.44° C | 56% | 1009.1 hPa | 0 mm | 1.34 m/s, 57° | 220 W/m² | - |
| 1787927298 | 24.44° C | 57% | 1008.9 hPa | 0 mm | 0.89 m/s, 129° | 214 W/m² | - |
| 1787927238 | 24.44° C | 56% | 1008.8 hPa | 0 mm | 1.34 m/s, 47° | 230 W/m² | - |
| 1787927178 | 24.44° C | 56% | 1009 hPa | 0 mm | 1.34 m/s, 41° | 229 W/m² | - |
| 1787927118 | 24.44° C | 56% | 1009.1 hPa | 0 mm | 1.34 m/s, 24° | 233 W/m² | - |
* Rain latest hour (hover to see other rain measurements)
** Current wind speed in m/s (hover to see current wind gust speed)